CW0630 Weather Reports


time (UTC)temp
F
wind
direction
speed
knots
gust
knots
rain 1hr
in
rain 24hr
in
rain mn
in
humidity
%
barometer
mb
20260904141028 91 219 0.0 0.0 0.00 0.00 0.00 66 1014.5
20260904131020 87 219 0.0 0.9 0.00 0.00 0.00 71 1014.4
20260904121038 82 200 0.0 0.0 0.00 0.00 0.00 80 1014.6
20260904111049 76 124 0.0 0.0 0.00 0.00 0.00 91 1014.4
20260904101026 76 119 0.0 0.0 0.00 0.00 0.00 88 1014.4
20260904091022 76 118 0.0 0.0 0.00 0.00 0.00 86 1014.6
20260904081014 77 119 0.0 0.0 0.00 0.00 0.00 84 1014.3
20260904071041 79 113 0.0 0.0 0.00 0.00 0.00 80 1014.0
20260904061029 82 360 1.7 1.7 0.00 0.00 0.00 79 1014.9
20260904051026 82 190 1.7 1.7 0.00 0.00 0.00 80 1014.3
20260904041025 83 166 0.0 0.9 0.00 0.00 0.00 78 1014.5
20260904031025 84 162 0.0 0.0 0.00 0.00 0.00 78 1014.8
20260904021022 84 142 0.0 0.9 0.00 0.00 0.00 79 1014.5
20260904011033 84 125 0.0 0.0 0.00 0.00 0.00 80 1015.2
20260904001024 86 125 0.0 0.0 0.00 0.00 0.00 79 1015.0
20260903231025 88 125 0.0 0.0 0.00 0.00 0.00 74 1014.4
20260903221040 89 126 0.0 0.0 0.00 0.00 0.00 67 1014.1
20260903211028 94 144 2.6 2.6 0.00 0.00 0.00 57 1014.3
20260903201031 94 181 0.0 0.0 0.00 0.00 0.00 60 1014.9
20260903191015 95 226 0.0 0.0 0.00 0.00 0.00 62 1015.5
20260903181027 95 229 0.0 0.0 0.00 0.00 0.00 62 1016.5
20260903171016 93 321 0.0 0.9 0.00 0.00 0.00 66 1017.1
20260903161018 91 24 1.7 1.7 0.00 0.00 0.00 68 1017.6
20260903151030 89 34 0.0 0.0 0.00 0.00 0.00 72 1017.6